AO-07 1 07530U 74089B 19024.14775762 -.00000044 00000-0 60240-5 0 9994 2 07530 101.7231 353.4267 0011877 268.7305 157.6608 12.53636306 22289 UO-11 1 14781U 84021B 19024.64187105 .00000038 00000-0 10811-4 0 9990 2 14781 97.6262 56.1006 0009958 78.6823 281.5509 14.83059106877265 LO-19 1 20442U 90005G 19024.00915025 .00000005 00000-0 18096-4 0 9997 2 20442 98.6343 326.3769 0011037 214.7683 145.2780 14.32915494515512 HUBBLE 1 20580U 90037B 19024.60527848 .00000427 00000-0 15111-4 0 9996 2 20580 28.4700 91.2698 0002778 8.4900 122.9512 15.09162227378957 MET-2/21 1 22782U 93055A 19024.84793337 -.00000024 00000-0 -34526-4 0 9995 2 22782 82.5489 278.0113 0021361 222.9136 191.8213 13.83815717282831 AO-27 1 22825U 93061C 19024.17858137 -.00000024 00000-0 87998-5 0 9997 2 22825 98.8897 9.6000 0009377 65.7293 294.4867 14.30049570321158 IO-26 1 22826U 93061D 19023.93430292 -.00000017 00000-0 11290-4 0 9992 2 22826 98.8836 9.3604 0009813 56.3827 303.8290 14.30382384321319 FO-29 1 24278U 96046B 19024.47074690 -.00000025 00000-0 13508-4 0 9990 2 24278 98.5153 197.7318 0349394 256.6846 99.5118 13.53088682108164 NOAA-15 1 25338U 98030A 19024.51375366 -.00000002 00000-0 18173-4 0 9990 2 25338 98.7581 45.9559 0009643 308.1617 51.8693 14.25892429 76568 GO-32 1 25397U 98043D 19023.36450538 -.00000018 00000-0 11142-4 0 9992 2 25397 098.6748 325.4002 0002368 094.9685 265.1764 14.23658909066837 ISS 1 25544U 98067A 19024.96692500 .00000277 00000-0 11771-4 0 9990 2 25544 51.6430 353.5344 0004625 308.7955 152.3492 15.53169512153005 NO-44 1 26931U 01043C 19024.42781378 -.00000055 00000-0 10877-4 0 9993 2 26931 67.0516 18.5263 0005581 265.6693 94.3771 14.30530140904194 SO-50 1 27607U 02058C 19024.77787349 -.00000017 00000-0 18471-4 0 9999 2 27607 64.5551 132.6406 0081302 284.0151 75.1922 14.75514191865651 CO-55 1 27844U 03031E 19024.01836142 .00000025 00000-0 31142-4 0 9995 2 27844 98.6860 34.3966 0010876 92.7130 267.5292 14.22156284807585 CO-57 1 27848U 03031J 19024.46181799 .00000012 00000-0 25128-4 0 9992 2 27848 98.6941 35.2986 0010764 101.5592 258.6794 14.21754598807509 RS-22 1 27939U 03042A 19024.81184709 .00000036 00000-0 14976-4 0 9993 2 27939 98.0172 163.6566 0013365 160.9135 199.2581 14.66748895819309 NOAA-18 1 28654U 05018A 19024.55604527 .00000063 00000-0 59301-4 0 9990 2 28654 99.1181 69.1997 0013754 222.9151 137.0948 14.12400028705027 CO-58 1 28895U 05043F 19023.96252717 .00000088 00000-0 25763-4 0 9991 2 28895 97.9355 171.8914 0018120 92.3423 267.9855 14.63623815706170 Falconsat-3 1 30776U 07006E 19024.14486535 .00002044 00000-0 59346-4 0 9999 2 30776 35.4357 299.1033 0003709 243.2207 116.8140 15.35495501658297 CO-65 1 32785U 08021C 19024.19219539 .00000169 00000-0 23879-4 0 9990 2 32785 97.5468 30.8019 0013834 31.4716 328.7326 14.88239161582041 AAUSAT2 1 32788U 08021F 19024.03999910 .00000060 00000-0 10593-4 0 9993 2 32788 97.5060 46.1552 0011099 335.1556 24.9129 14.94578633583168 DO-64 1 32789U 08021G 19024.71420506 .00000730 00000-0 53339-4 0 9998 2 32789 97.4848 78.6278 0010865 259.3299 100.6705 15.06603411585136 CO-66 1 32791U 08021J 19024.72240790 .00000288 00000-0 34684-4 0 9997 2 32791 97.5297 37.0951 0013511 7.4141 352.7275 14.90719274582512 RS-30 1 32953U 08025A 19024.85385187 .00000021 00000-0 75656-4 0 9994 2 32953 82.4994 234.8163 0019753 84.2298 276.1016 12.43087322484310 PRISM 1 33493U 09002B 19024.70865930 .00000585 00000-0 57078-4 0 9996 2 33493 98.1226 300.1724 0014532 306.3772 53.6137 14.96483291543477 NOAA-19 1 33591U 09005A 19024.53112158 .00000053 00000-0 54259-4 0 9994 2 33591 99.1677 12.2342 0014892 67.0990 293.1751 14.12330613513428 TISAT-1 1 36799U 10035E 19024.46045456 .00000250 00000-0 31382-4 0 9991 2 36799 98.1334 171.9978 0012011 196.5914 163.4911 14.90986423463123 JUGNU 1 37839U 11058B 19024.51249211 .00000300 00000-0 18243-4 0 9991 2 37839 19.9608 135.1502 0018839 166.1808 281.8124 14.12640108376707 SRMSAT 1 37841U 11058D 19024.78579458 .00000275 00000-0 61301-5 0 9997 2 37841 19.9704 187.2739 0011975 44.8457 84.3760 14.10623132376206 AO-71 1 37854U 11061E 19024.48524785 .00001046 00000-0 61417-4 0 9999 2 37854 101.7137 208.0034 0161834 136.9580 224.4423 15.06083429395131 HRBE 1 37855U 11061F 19024.49446328 .00001448 00000-0 80466-4 0 9998 2 37855 101.7266 205.4437 0174702 147.0257 214.1995 15.05080258394938 ALMASAT-1 1 38078U 12006B 19024.86968329 .00024668 39968-5 17828-3 0 9997 2 38078 69.4301 317.6556 0193451 127.9545 292.0881 15.53092850374934 HORYU-2 1 38340U 12025D 19024.06462983 .00000129 00000-0 26891-4 0 9994 2 38340 98.3473 58.1439 0010765 223.3008 136.7355 14.75657995359680 RS-40 1 38735U 12041C 19024.45557883 .00000017 00000-0 55103-4 0 9991 2 38735 82.4790 318.6505 0015993 189.6372 170.4403 12.42577226294517 BEESAT-3 1 39135U 13015F 19024.73912266 .00001166 00000-0 68233-4 0 9993 2 39135 64.8699 146.2128 0010405 266.1947 93.7989 15.17155944318250 BEESAT-2 1 39136U 13015G 19023.60146946 .00000848 00000-0 53142-4 0 9992 2 39136 064.8693 153.2697 0008660 287.5579 072.4601 15.16592770317628 ZACUBE-1 1 39417U 13066B 19024.78916129 .00000168 00000-0 27496-4 0 9996 2 39417 97.5708 46.3744 0059832 147.8917 212.5963 14.81044098279593 TRITON-1 1 39427U 13066M 19024.86601846 .00000109 00000-0 25720-4 0 9996 2 39427 97.6607 11.3353 0112482 269.2926 89.5391 14.67772596277096 GOMX-1 1 39430U 13066Q 19024.80078540 .00000160 00000-0 38138-4 0 9997 2 39430 97.7269 351.0678 0151495 351.7540 8.1176 14.59186761275477 LO-74 1 39440U 13066AA 19024.04773560 .00000115 00000-0 23084-4 0 9992 2 39440 97.5992 31.1195 0079934 197.1635 162.6870 14.75783126278491 AO-73 1 39444U 13066AE 19024.53136975 .00000202 00000-0 31174-4 0 9999 2 39444 97.5703 47.9245 0059065 143.3017 217.2264 14.81848312278430 SPROUT 1 39770U 14029E 19024.84549827 .00000308 00000-0 40367-4 0 9990 2 39770 97.8787 129.1757 0008573 195.9869 164.1071 14.87146055253300 DUCHIFAT-1 1 40021U 14033M 19023.67083738 .00000424 00000-0 49208-4 0 9992 2 40021 097.9214 307.8241 0013057 165.7137 194.4453 14.90503299249795 NANOSATCBR1 1 40024U 14033Q 19024.83054430 .00000243 00000-0 31235-4 0 9991 2 40024 97.9129 306.7590 0012430 164.3893 195.7709 14.89737102249873 EO-79 1 40025U 14033R 19024.53732343 .00000209 00000-0 28271-4 0 9993 2 40025 97.9068 304.4604 0012548 170.7969 189.3480 14.88853493249722 DTUSAT-2 1 40030U 14033W 19024.69575467 .00000212 00000-0 28816-4 0 9997 2 40030 97.9000 303.0080 0012091 165.3072 194.8498 14.88453967249682 EO-80 1 40032U 14033Y 19024.69556206 .00000220 00000-0 29807-4 0 9999 2 40032 97.9007 303.0091 0012053 165.9332 194.2222 14.88393714249677 ANTELSAT 1 40034U 14033AA 19024.71217987 .00000162 00000-0 31594-4 0 9995 2 40034 97.7811 257.8564 0058140 202.9713 156.8894 14.74034044247314 VELOX-1 1 40057U 14034E 19024.82952056 .00000155 00000-0 29332-4 0 9995 2 40057 98.2188 144.9698 0010385 345.0403 15.0508 14.77571504246373 DAURIA DX 1 1 40071U 14037C 19024.72499744 .00000045 00000-0 13306-4 0 9995 2 40071 98.4027 171.4040 0008035 339.6004 20.4895 14.81227685245791 UKUBE-1 1 40074U 14037F 19024.86656389 .00000136 00000-0 23582-4 0 9991 2 40074 98.4117 178.7701 0004479 333.6927 26.4059 14.83953077246178 HODOYOSHI-1 1 40299U 14070B 19024.73569844 .00000424 00000-0 20851-4 0 9998 2 40299 97.3620 107.4379 0012655 184.4714 274.5658 15.23182750234204 CHUBUSAT-1 1 40300U 14070C 19024.82979715 .00000305 00000-0 16399-4 0 9993 2 40300 97.3427 102.5820 0019122 202.0245 290.6770 15.21878821233988 QSAT-EOS 1 40301U 14070D 19024.76989377 .00001112 00000-0 46445-4 0 9994 2 40301 97.3414 104.8041 0025893 186.7645 327.2547 15.25444014234199 FIREBIRD FU3 1 40377U 15003B 19023.85629225 .00001340 00000-0 57646-4 0 9994 2 40377 99.0959 334.4931 0128092 215.8629 143.3951 15.18142683219799 FIREBIRD FU4 1 40378U 15003C 19024.83267959 .00001505 00000-0 64056-4 0 9992 2 40378 99.0962 335.7346 0128365 212.4781 146.8503 15.18152422219943 GRIFEX 1 40379U 15003D 19024.77948932 .00001146 00000-0 53633-4 0 9993 2 40379 99.0952 330.6184 0135704 228.8186 130.1275 15.15015693219646 NO-84 1 40654U 15025D 19024.34838583 .00005208 00000-0 83783-4 0 05152 2 40654 054.9927 114.4512 0143418 314.4930 044.4414 15.44210591089976 NO-83 1 40655U 15025E 19024.27355646 .00027307 00000-0 20934-3 0 06107 2 40655 054.9720 027.7242 0082445 008.2625 351.9859 15.67425826090835 DEORBITSAIL 1 40719U 15032E 19023.63196542 .00000340 00000-0 55870-4 0 9999 2 40719 097.9247 278.2849 0017648 059.0689 301.2253 14.76620470190704 NUDT-PHONESAT 1 40900U 15049B 19024.78540043 .00001281 00000-0 58781-4 0 9994 2 40900 97.4387 35.5874 0012768 340.8362 104.4459 15.22178860185613 XW-2A 1 40903U 15049E 19024.76614662 .00001063 00000-0 27569-4 0 9992 2 40903 97.3582 66.5872 0012752 316.4230 135.2831 15.41283735187921 XW-2C 1 40906U 15049H 19024.74548603 .00000488 00000-0 29226-4 0 9996 2 40906 97.4640 29.2719 0014714 348.6637 97.9946 15.15478180185047 XW-2D 1 40907U 15049J 19024.74002902 .00000577 00000-0 33786-4 0 9999 2 40907 97.4615 28.9460 0014137 346.7608 98.4042 15.15651356185057 LILACSAT-2 1 40908U 15049K 19024.82478750 -.00000065 00000-0 00000 0 0 9998 2 40908 97.4737 28.0898 0015731 349.8687 87.6155 15.13681688184896 XW-2E 1 40909U 15049L 19024.78326216 .00000615 00000-0 34052-4 0 9992 2 40909 97.4576 31.4640 0013297 343.7983 102.5298 15.17467759185215 XW-2F 1 40910U 15049M 19024.76792900 .00000472 00000-0 27252-4 0 9994 2 40910 97.4601 30.6907 0014469 339.9244 105.3922 15.16982603185047 XW-2B 1 40911U 15049N 19024.76629869 .00000188 00000-0 13371-4 0 9999 2 40911 97.4647 29.5832 0013898 347.6560 97.5694 15.15584511184956 DCBB 1 40912U 15049P 19024.75378807 .00000727 00000-0 37670-4 0 9999 2 40912 97.4503 34.0170 0014230 324.6612 120.4963 15.19256744185301 TW-1C 1 40926U 15051B 19024.78170701 .00006134 00000-0 10105-3 0 9994 2 40926 97.1567 71.2891 0008671 175.7736 275.8353 15.52654482187656 TW-1A 1 40928U 15051D 19024.75314603 .00001916 00000-0 50232-4 0 9993 2 40928 97.1627 59.2111 0009819 233.6288 217.6731 15.39859438186866 IO-86 1 40931U 15052B 19023.45508528 .00000677 00000-0 51717-5 0 9998 2 40931 6.0021 19.4227 0013035 247.1540 112.7221 14.76595732179617 LQSat 1 40958U 15057A 19024.81264097 .00000009 00000-0 90585-5 0 9998 2 40958 97.9172 97.7965 0017992 350.8489 9.2383 14.73064466177473 AO-85 1 40967U 15058D 19024.24762703 .00000008 00000-0 19237-4 0 05778 2 40967 064.7772 240.0501 0212071 247.3441 110.5096 14.75859205086272 ATHENOXAT-1 1 41168U 15077C 19024.73334012 .00001320 00000-0 34556-4 0 9992 2 41168 14.9816 198.1943 0011664 238.5905 226.1783 15.13280224171989 ChubuSat-2 1 41338U 16012B 19024.90214849 .00000306 00000-0 17114-4 0 9999 2 41338 31.0041 344.8803 0013777 109.4946 250.7178 15.00085329161155 ChubuSat-3 1 41339U 16012C 19024.28998952 .00000236 00000-0 11592-4 0 9991 2 41339 31.0118 347.0555 0013630 109.8611 250.3495 15.00264901161053 Horyu-4 1 41340U 16012D 19023.15892629 .00000385 00000-0 22611-4 0 9991 2 41340 031.0060 347.0269 0014037 115.6447 244.5640 15.01154307160973 OUFTI-1 1 41458U 16025C 19024.70342447 .00001345 00000-0 72500-4 0 9994 2 41458 98.1118 104.1824 0168766 124.1563 237.5818 15.05342119150762 e-st@r-II 1 41459U 16025D 19024.82015491 .00001918 00000-0 10185-3 0 9990 2 41459 98.1147 104.0479 0170302 124.9866 236.7462 15.05032118150753 AAUSAT4 1 41460U 16025E 19024.63518684 .00001753 00000-0 92316-4 0 9997 2 41460 98.1054 104.7588 0159957 119.5790 242.1518 15.06719707150827 LO-87 1 41557U 16033B 19024.83102915 .00001160 00000-0 46707-4 0 9996 2 41557 97.4255 113.1831 0015648 90.2359 270.0673 15.26821136147985 NuSat2 1 41558U 16033C 19024.84902472 .00001262 00000-0 47786-4 0 9995 2 41558 97.4276 113.7847 0014705 92.2894 268.0030 15.28713367148007 Lapan A3 1 41603U 16040E 19024.79483601 -.00000019 00000-0 22610-5 0 9996 2 41603 97.3827 86.9108 0013262 179.0477 318.4358 15.19657233143735 Swayam 1 41607U 16040J 19024.40543036 .00001258 00000-0 56607-4 0 9994 2 41607 97.3862 89.0443 0013755 175.3195 184.8173 15.22858854143766 Pratham 1 41783U 16059A 19024.12466278 .00000059 00000-0 20597-4 0 9997 2 41783 98.0892 86.7655 0034762 120.7531 239.7102 14.62968723124266 AlSat 1N 1 41789U 16059G 19024.85213365 .00000052 00000-0 18821-4 0 9990 2 41789 98.0915 89.1637 0029663 109.0042 251.4366 14.64211213124457 ScatSat 1 41790U 16059H 19024.75796058 -.00000003 00000-0 10419-4 0 9998 2 41790 98.2310 73.1672 0019205 129.0975 231.1931 14.50887756123313 TY-1 1 41844U 16066D 19024.80235573 .00000957 00000-0 42506-4 0 9991 2 41844 97.4054 33.9135 0015014 344.9004 117.7172 15.23885091122622 Pegasus-1 1 41846U 16066F 19024.33683742 .00000155 00000-0 35062-4 0 9995 2 41846 98.7315 62.0764 0366923 310.4511 46.5207 14.37481054115678 CAS-2T 1 41847U 16066G 19024.18145605 .00000010 00000-0 12993-4 0 9998 2 41847 98.7266 62.4318 0365141 307.8345 49.0310 14.37953241116080 EO-88 1 42017U 17008BX 19024.12441352 .00001213 00000-0 51372-4 0 9997 2 42017 97.4224 92.6181 0005380 336.2556 23.8433 15.25080577107738 HAVELSAT 1 42700U 98067LH 19024.80652420 .00180406 24085-4 42520-3 0 9994 2 42700 51.6221 286.0382 0002668 135.6145 224.5077 15.96460721 97068 SOMP2 1 42701U 98067LJ 19024.21131700 .00119613 16397-4 38521-3 0 9998 2 42701 51.6310 294.2472 0002109 108.3425 251.7811 15.90751976 96894 PHOENIX 1 42706U 98067LP 19024.84060405 .00060069 00000-0 28597-3 0 9997 2 42706 51.6277 297.0072 0000805 130.1169 229.9904 15.82281022 96832 X-CubeSat 1 42707U 98067LQ 19024.88720750 .00557504 16800-3 62442-3 0 9998 2 42707 51.6182 281.1347 0004600 198.4835 161.6012 16.08769421 97039 qbee 1 42708U 98067LR 19024.83980794 .00202792 27479-4 47658-3 0 9993 2 42708 51.6229 287.0384 0002907 161.7918 198.3195 15.96474197 96915 ZA-AeroSat 1 42713U 98067LU 19024.76266105 .00057009 00000-0 29363-3 0 9993 2 42713 51.6342 302.5561 0000200 64.0448 296.0575 15.80597830 96410 SpaceCube 1 42717U 98067LY 19024.89440172 .00191047 25520-4 46474-3 0 9990 2 42717 51.6172 287.2884 0002878 143.3751 216.7454 15.95861488 95999 NJUST-1 1 42722U 98067MB 19024.80416207 .00031110 00000-0 18395-3 0 9996 2 42722 51.6382 306.4428 0003343 19.3860 78.5662 15.77818224 95431 LO-90 1 42725U 98067ME 19024.83272806 .00080612 00000-0 28349-3 0 9998 2 42725 51.6341 295.2133 0002548 94.4278 15.1145 15.88455097 95496 nSIGHT1 1 42726U 98067MF 19024.82955742 .00011521 00000-0 11617-3 0 9998 2 42726 51.6391 326.5721 0004536 356.0375 4.0584 15.65892921 95082 SNUSAT 1B 1 42727U 98067MG 19024.78607141 .00109870 00000-0 39571-3 0 9995 2 42727 51.6286 295.7865 0000742 8.0524 352.0492 15.87858540 95444 QBITO 1 42728U 98067MH 19024.89226815 .00289518 46412-4 54877-3 0 9998 2 42728 51.6264 286.0082 0003071 164.8197 195.2905 16.00215448 95424 Aalto-2 1 42729U 98067MJ 19024.89289335 .00464218 11334-3 60970-3 0 9992 2 42729 51.6192 283.5213 0004495 188.7235 171.3700 16.06270160 95462 SUSat 1 42730U 98067MK 19024.18259489 .00111685 00000-0 36622-3 0 9992 2 42730 51.6303 296.3010 0002072 117.9326 242.1889 15.89727908 95225 PolyITAN-2-SAU 1 42732U 98067MM 19024.81882709 .00478429 12238-3 57820-3 0 9995 2 42732 51.6225 283.0300 0004016 207.7656 152.3143 16.07594149 95505 Aoxiang-1 1 42735U 98067MQ 19024.81532873 .00034670 00000-0 19517-3 0 9990 2 42735 51.6331 304.9286 0003164 31.9425 67.2335 15.78859705 96581 BeEagleSat 1 42736U 98067MR 19024.83801166 .00072575 00000-0 31467-3 0 9991 2 42736 51.6297 298.4636 0002472 34.8911 325.2254 15.84190867 95368 CAS-4B 1 42759U 17034B 19024.81554175 .00000098 00000-0 19607-4 0 9998 2 42759 43.0205 306.4073 0009757 52.6455 344.8876 15.09470099 88944 CAS-4A 1 42761U 17034D 19024.85416862 .00000009 00000-0 14079-4 0 9995 2 42761 43.0191 305.8254 0010161 54.7719 353.3676 15.09545865 88949 UCLSat 1 42765U 17036A 19024.81916618 .00001070 00000-0 49306-4 0 9991 2 42765 97.3726 85.7911 0012218 26.8634 333.3232 15.22376974 88421 NIUSat 1 42766U 17036B 19024.10792675 .00000735 00000-0 36321-4 0 9999 2 42766 97.3726 83.8687 0016126 16.8536 343.3232 15.20813832 88106 LituanicaSAT 2 1 42768U 17036D 19024.39727800 .00001641 00000-0 74257-4 0 9997 2 42768 97.3753 84.9324 0015630 16.9124 343.2630 15.22204049 88209 Aalto 1 1 42775U 17036L 19024.75087588 .00000689 00000-0 33991-4 0 9998 2 42775 97.3715 84.7902 0014427 15.5302 344.6373 15.21091140 88171 URSA MAIOR 1 42776U 17036M 19024.19712595 .00000670 00000-0 33045-4 0 9990 2 42776 97.3723 84.3522 0014273 17.4745 342.6979 15.21205476 88096 Max Valier Sat 1 42778U 17036P 19024.81090383 .00000737 00000-0 35512-4 0 9990 2 42778 97.3756 85.5285 0012847 20.5752 339.5999 15.21729510 88201 Pegasus 1 42784U 17036V 19024.16325759 .00000895 00000-0 41992-4 0 9997 2 42784 97.3731 85.0143 0012833 28.8885 331.3059 15.22150083 88124 NUDATSat 1 42787U 17036Y 19024.83621412 .00001256 00000-0 56386-4 0 9994 2 42787 97.3763 86.1345 0013218 22.2220 337.9583 15.22950145 88094 SUCHAI 1 1 42788U 17036Z 19024.40406309 .00001123 00000-0 51408-4 0 9997 2 42788 97.3733 85.4582 0012375 27.9034 332.2864 15.22502988 88240 SKCUBE 1 42789U 17036AA 19023.62289663 .00000998 00000-0 46089-4 0 9991 2 42789 097.3732 084.6605 0012301 030.6233 329.5719 15.22427986088048 VZLUSAT 1 1 42790U 17036AB 19023.64081747 .00001368 00000-0 61159-4 0 9995 2 42790 097.3742 084.9637 0011859 030.5222 329.6702 15.22955124088068 VENTA 1 1 42791U 17036AC 19023.59908638 .00000976 00000-0 45112-4 0 9992 2 42791 097.3730 084.6864 0011976 031.4958 328.6993 15.22454225088035 Robusta 1B 1 42792U 17036AD 19024.16082033 .00001020 00000-0 46845-4 0 9994 2 42792 97.3730 85.2994 0011849 29.9153 330.2759 15.22588548 88142 D-SAT 1 42794U 17036AF 19024.38345627 .00000049 00000-0 99915-5 0 9998 2 42794 97.5619 75.3090 0125242 265.7902 92.8996 14.91007272 86680 BIRD-J 1 42820U 98067MU 19024.81536547 .00074166 00000-0 34538-3 0 9991 2 42820 51.6311 302.8618 0000591 132.5821 227.5232 15.82670395 88768 BIRD-G 1 42821U 98067MV 19024.18891865 .00055939 00000-0 28845-3 0 9990 2 42821 51.6277 308.4224 0000431 137.8511 222.2523 15.80580512 88610 BIRD-M 1 42822U 98067MW 19024.16050672 .00057690 00000-0 28325-3 0 9991 2 42822 51.6332 307.5221 0000422 69.7061 290.3987 15.81632776 88625 BIRD-B 1 42823U 98067MX 19023.99858230 .00061111 00000-0 29320-3 0 9997 2 42823 51.6304 307.9386 0001070 330.6397 29.4545 15.82107220 88604 BIRD-N 1 42824U 98067MY 19024.83406965 .00069116 00000-0 34016-3 0 9997 2 42824 51.6337 304.5789 0001594 352.6068 7.4911 15.81508916 88712 TechnoSat 1 42829U 17042E 19024.78146828 .00000192 00000-0 24871-4 0 9997 2 42829 97.5803 283.5403 0014199 176.3933 183.7391 14.90915329 83343 TOMSK-TPU 120 1 42910U 98067MZ 19024.85167875 .00020952 00000-0 15630-3 0 9995 2 42910 51.6362 317.3815 0003032 348.5053 51.4446 15.72705186 82168 TANYUSHA 1 1 42911U 98067NA 19024.83667198 .00029758 00000-0 19077-3 0 9999 2 42911 51.6321 313.4112 0002840 355.6755 103.0163 15.76008776 82193 TANYUSHA 2 1 42912U 98067NB 19024.71312556 .00024517 00000-0 16913-3 0 9996 2 42912 51.6386 316.4551 0002756 10.2674 66.9977 15.74435443 82165 TNS 0-2 1 42914U 98067ND 19024.84681947 .00035410 00000-0 26022-3 0 9991 2 42914 51.6342 318.2598 0002908 351.5264 8.5684 15.72741432 82146 QIKCOM-1 1 42983U 98067NF 19024.83507527 .00003882 00000-0 57903-4 0 9998 2 42983 51.6404 346.8868 0003497 311.2284 48.8407 15.57748852 70757 AO-91 1 43017U 17073E 19024.49286852 .00000516 00000-0 46605-4 0 9990 2 43017 97.7207 311.5644 0257384 271.2203 85.9536 14.78370249 63807 EcAMSat 1 43019U 98067NG 19024.86443107 .00006705 00000-0 89446-4 0 9999 2 43019 51.6416 344.1106 0003950 284.5631 75.4924 15.59421808153112 PICSAT 1 43132U 18004X 19024.47181024 .00000983 00000-0 44586-4 0 9990 2 43132 97.5075 92.4694 0011007 50.5895 309.6314 15.23179826 57397 AO-92 1 43137U 18004AC 19024.85126486 .00000863 00000-0 39564-4 0 9995 2 43137 97.5068 92.8633 0010583 51.2708 308.9472 15.23154305 57448 TianYi 2 1 43155U 18008A 19024.79299934 .00000254 00000-0 19009-4 0 9997 2 43155 97.5036 100.2869 0019539 102.4991 40.0204 15.10899137 55946 Zhou Enlai 1 43156U 18008B 19024.79189152 .00000245 00000-0 18767-4 0 9998 2 43156 97.5075 100.2044 0016669 100.0552 42.5768 15.10388464 55929 TianYi 6 1 43158U 18008D 19024.79895590 .00000278 00000-0 20909-4 0 9997 2 43158 97.5036 99.8531 0015522 97.1563 39.3419 15.10032828 55890 S-Net G 1 43186U 18014G 19024.80815904 .00000138 00000-0 17205-4 0 9998 2 43186 97.7173 295.3001 0012114 126.7524 233.4812 14.96567075 53465 S-Net H 1 43187U 18014H 19024.80798526 .00000145 00000-0 17814-4 0 9993 2 43187 97.7171 295.2919 0012118 126.7590 233.4746 14.96567073 53462 S-Net J 1 43188U 18014J 19024.80779011 .00000133 00000-0 16728-4 0 9992 2 43188 97.7173 295.3035 0012113 126.8552 233.3782 14.96567973 53467 S-Net K 1 43189U 18014K 19024.80806859 .00000141 00000-0 17490-4 0 9990 2 43189 97.7170 295.2901 0012107 126.7014 233.5321 14.96566703 52012 FMN 1 1 43192U 18015A 19024.22351653 .00001321 00000-0 57812-4 0 9991 2 43192 97.3798 154.0808 0018254 85.8412 274.4911 15.23660989 54161 Shaonian Xing 1 43199U 18015H 19024.55328462 .00001034 00000-0 44995-4 0 9995 2 43199 97.3576 153.8171 0019105 95.7321 264.6097 15.24325589 54258 1KUNS-PF 1 43466U 98067NP 19024.31553277 .00017726 00000-0 21264-3 0 9993 2 43466 51.6401 349.4199 0000620 87.8114 272.2950 15.60993362 40171 UBAKUSAT 1 43467U 98067NQ 19024.35633529 .00011701 00000-0 15115-3 0 9992 2 43467 51.6395 350.4390 0001713 224.6705 135.4151 15.59439669 40176 Irazu 1 43468U 98067NR 19024.35620444 .00021848 00000-0 24886-3 0 9993 2 43468 51.6396 348.1885 0000860 89.0875 271.0218 15.62187828140188 EnduroSat One 1 43551U 98067NZ 19023.38466523 .00011216 00000-0 14898-3 0 9994 2 43551 51.6403 357.4391 0005583 325.3205 34.7423 15.58738424 30229 EQUISat 1 43552U 98067PA 19024.31112133 .00012298 00000-0 16576-3 0 9990 2 43552 51.6408 353.1298 0005898 327.1204 32.9421 15.58236281 30325 UiTMSat 1 1 43589U 98067PD 19024.37014815 .00013180 00000-0 17890-3 0 9995 2 43589 51.6389 353.5145 0005345 337.9690 22.1071 15.57974714 26060 Maya 1 1 43590U 98067PE 19024.17486069 .00012009 00000-0 16351-3 0 9999 2 43590 51.6391 354.4617 0005567 338.3023 21.7733 15.57991885 25966 Bhutan 1 1 43591U 98067PF 19024.17044383 .00012084 00000-0 16420-3 0 9999 2 43591 51.6399 354.4338 0005621 338.3888 21.6866 15.58039968 25967 SiriusSat 1 1 43595U 98067PG 19023.38781157 .00009495 00000-0 13328-3 0 9998 2 43595 051.6392 358.9510 0002688 283.9479 076.1214 15.57468836025013 SiriusSat 2 1 43596U 98067PH 19023.40314309 .00009585 00000-0 13525-3 0 9992 2 43596 051.6407 359.0694 0003336 286.4987 073.5639 15.57314275025018 Tanusha-3 1 43597U 98067PJ 19024.46188902 .00014911 00000-0 20147-3 0 9995 2 43597 51.6385 353.3566 0002835 309.9981 50.0762 15.57984254 25182 SurfSat 1 43614U 18070B 19024.55641586 .00002368 00000-0 65702-4 0 9993 2 43614 93.0394 303.6865 0018139 138.0374 222.2273 15.36839560 20117 CP-7 DAVE 1 43615U 18070C 19024.75224461 .00002158 00000-0 59961-4 0 9992 2 43615 93.0395 303.7684 0018210 137.2631 223.0042 15.36809804 20140 ELFIN-B 1 43616U 18070D 19023.69664124 .00003184 00000-0 87483-4 0 9999 2 43616 93.0358 303.2809 0018960 144.3829 215.8693 15.37101646 19985 ELFIN-A 1 43617U 18070E 19023.56359459 .00003197 00000-0 87784-4 0 9996 2 43617 093.0413 303.3268 0018163 141.1939 219.0622 15.37137493019965 STARS-Me Mother 1 43640U 98067PQ 19024.46175725 .00008376 00000-0 12465-3 0 9995 2 43640 51.6403 354.8795 0004830 274.9456 85.0984 15.56051403 17092 CubeBel 1 1 43666U 18083E 19024.80230263 .00000592 00000-0 33119-4 0 9992 2 43666 97.5320 50.1914 0014612 337.8928 76.7562 15.17257594 13314 Changshagaoxin 1 43669U 18083H 19024.83396601 .00000821 00000-0 45531-4 0 9993 2 43669 97.5187 49.9650 0010170 330.6909 29.3752 15.16530092 13272 Ten-Koh 1 43677U 18084G 19024.51354574 -.00000343 00000-0 -29536-4 0 9999 2 43677 97.8386 139.3335 0017127 45.1561 315.1077 14.90115017 12991 Diwata-2 1 43678U 18084H 19024.76664218 .00000248 00000-0 30375-4 0 9991 2 43678 97.8385 139.7844 0011356 65.9006 294.3380 14.91523685 13049 IRVINE 01 1 43693U 18088D 19024.81547312 .00002143 00000-0 95241-4 0 9992 2 43693 85.0338 53.7389 0019103 12.6729 347.4989 15.20720277 11346 Reaktor Hello World 1 43743U 18096AA 19024.82956351 .00000827 00000-0 34658-4 0 9997 2 43743 97.4792 94.8832 0019839 123.4617 345.3821 15.26243577 8634 MinXSS-2 1 43758U 18099A 19024.14527707 .00000705 00000-0 69150-4 0 9990 2 43758 97.7621 97.8101 0017232 93.7426 266.5766 14.95289657 7688 OBJECT B 1 43759U 18099B 19024.82212292 .00000379 00000-0 39832-4 0 9997 2 43759 97.7624 98.4681 0015885 84.8885 275.4148 14.95061470 7778 OBJECT C 1 43760U 18099C 19024.82330834 .00000788 00000-0 77089-4 0 9992 2 43760 97.7616 98.4559 0015514 90.6178 269.6820 14.95047924 7785 OBJECT D 1 43761U 18099D 19024.49072954 .00000295 00000-0 32256-4 0 9992 2 43761 97.7648 98.1480 0016062 91.5051 268.8010 14.94965525 7721 OBJECT F 1 43763U 18099F 19024.80752151 -.00000034 00000-0 22058-5 0 9995 2 43763 97.7610 98.4774 0014758 90.4579 269.8348 14.95477160 7789 OBJECT J 1 43766U 18099J 19024.84380565 -.00000091 00000-0 -30782-5 0 9995 2 43766 97.7610 98.4291 0012923 88.2573 272.0127 14.94441377 7788 AO-95 1 43770U 18099N 19024.16662838 .00000127 00000-0 17037-4 0 9996 2 43770 97.7626 97.7843 0016162 98.6428 261.6624 14.94664834 7688 OBJECT P 1 43771U 18099P 19024.16637779 .00000150 00000-0 19109-4 0 9991 2 43771 97.7626 97.7841 0016197 98.7295 261.5761 14.94673293 7677 RANGE-A 1 43772U 18099Q 19024.16436346 .00000329 00000-0 35579-4 0 9996 2 43772 97.7675 97.8192 0015746 87.3652 272.9370 14.94736512 7678 RANGE-B 1 43773U 18099R 19024.83372139 .00000015 00000-0 66710-5 0 9994 2 43773 97.7574 98.4194 0015125 85.2244 275.0703 14.94729181 7770 OBJECT T 1 43775U 18099T 19024.15977923 .00000250 00000-0 28166-4 0 9996 2 43775 97.7635 97.8043 0016277 91.0325 269.2760 14.94859442 7660 OBJECT U 1 43776U 18099U 19024.15972254 .00000199 00000-0 23565-4 0 9999 2 43776 97.7635 97.8043 0016280 90.8121 269.4964 14.94858672 7668 OBJECT V 1 43777U 18099V 19024.77324993 .00000082 00000-0 12962-4 0 9999 2 43777 97.7580 98.3509 0017199 91.2585 269.0606 14.94416247 7768 OBJECT W 1 43778U 18099W 19024.16315805 .00000229 00000-0 26282-4 0 9998 2 43778 97.7534 97.7287 0015643 95.6424 264.6581 14.94765901 7257 OBJECT X 1 43779U 18099X 19024.15974545 .00000222 00000-0 25624-4 0 9992 2 43779 97.7634 97.8041 0016266 90.8865 269.4219 14.94859069 7661 MOVE-II 1 43780U 18099Y 19024.15900255 .00000552 00000-0 55854-4 0 9995 2 43780 97.7610 97.7803 0015180 97.5929 262.7017 14.94896441 7668 SNUSat 2 1 43782U 18099AA 19024.15653883 .00000458 00000-0 47173-4 0 9999 2 43782 97.7623 97.7952 0014386 87.5303 272.7565 14.94958573 7676 OBJECT AC 1 43784U 18099AC 19024.15398451 .00000518 00000-0 52551-4 0 9991 2 43784 97.7587 97.7729 0016768 94.9985 265.3151 14.95032046 7682 ITASat 1 1 43786U 18099AE 19023.41711121 .00000585 00000-0 58645-4 0 9998 2 43786 097.7642 097.0839 0016837 096.1677 264.1462 14.95049852007573 OBJECT AH 1 43789U 18099AH 19024.14053325 .00000645 00000-0 63500-4 0 9990 2 43789 97.7615 97.8099 0017447 93.3317 266.9900 14.95427483 7375 EAGLET 1 1 43790U 18099AJ 19024.40766318 .00000494 00000-0 49890-4 0 9992 2 43790 97.7629 98.0882 0015026 98.0967 262.1959 14.95433646 7414 ESEO 1 43792U 18099AL 19024.20581047 .00000379 00000-0 39443-4 0 9991 2 43792 97.7611 97.8816 0014859 96.0656 264.2258 14.95461068 7444 CSIM 1 43793U 18099AM 19024.20433487 .00000722 00000-0 70302-4 0 9997 2 43793 97.7561 97.8381 0014567 95.3821 264.9062 14.95525240 7418 Astrocast 0.1 1 43798U 18099AS 19024.39949854 .00000277 00000-0 30090-4 0 9997 2 43798 97.7614 98.0891 0013866 80.8527 279.4262 14.95670488 7704 OBJECT AV 1 43801U 18099AV 19024.81918530 .00000516 00000-0 52196-4 0 9993 2 43801 97.7580 98.4332 0015853 85.9623 274.3409 14.95150083 7774 JO-97 1 43803U 18099AX 19023.61433768 .00000686 00000-0 67657-4 0 9993 2 43803 097.7598 097.2548 0016806 096.5740 263.7395 14.95158709007597 Suomi 100 1 43804U 18099AY 19024.81873043 .00000608 00000-0 60534-4 0 9992 2 43804 97.7596 98.4465 0016889 92.9043 267.4111 14.95165416 7785 Al Farabi 2 1 43805U 18099AZ 19024.81807628 .00000739 00000-0 72354-4 0 9997 2 43805 97.7596 98.4474 0016929 93.1638 267.1520 14.95190612 7781 OBJECT BA 1 43806U 18099BA 19024.81789354 .00000539 00000-0 54231-4 0 9995 2 43806 97.7597 98.4451 0016602 91.2136 269.0987 14.95185648 7475 OBJECT BD 1 43809U 18099BD 19024.88022467 .00000609 00000-0 60417-4 0 9991 2 43809 97.7612 98.5334 0016862 93.9459 266.3690 14.95317480 7485 OBJECT BE 1 43810U 18099BE 19024.81320076 .00000560 00000-0 55971-4 0 9998 2 43810 97.7524 98.4101 0016088 89.3979 270.9085 14.95317260 7324 PWSat 2 1 43814U 18099BJ 19023.95332369 .00009593 00000-0 87111-3 0 9999 2 43814 97.7664 97.5992 0009610 119.2769 240.9387 14.95448001 7043 OBJECT BQ 1 43820U 18099BQ 19024.81365147 .00000585 00000-0 58294-4 0 9995 2 43820 97.7570 98.4416 0014223 85.2525 275.0319 14.95305618 7179 CHOMPTT 1 43855U 18104G 19024.35349641 .00000042 00000-0 00000 0 0 9995 2 43855 85.0386 152.4981 0019508 125.1970 235.1182 15.22100672 5918 Lume 1 1 43908U 18111AJ 19024.84122323 .00000949 00000-0 41809-4 0 9995 2 43908 97.2997 293.9794 0022867 139.0246 221.2715 15.24006413 4383 OrigamiSat 1 1 43933U 19003B 19024.27125943 .00000478 00000-0 24294-4 0 9998 2 43933 97.3034 86.3678 0016720 234.0902 195.8427 15.21404996 944 NEXUS 1 43937U 19003F 19024.67400977 .00000921 00000-0 41629-4 0 9993 2 43937 97.2995 86.7701 0023563 219.2548 297.4794 15.23194682 1002 /EX
